Weather History for Sarasota, FL

Change the Weather History Date:

Thursday, December 6, 2012

  Actual Average Record
Temperature  
Mean Temperature 72 °F 65 °F  
Max Temperature 81 °F 75 °F 86 °F (1994)
Min Temperature 63 °F 55 °F 38 °F (1987)
Degree Days  
Heating Degree Days 0 3  
Month to date heating degree days 0 15  
Since 1 July heating degree days 41 48  
Cooling Degree Days 7 3  
Month to date cooling degree days 34 18  
Year to date cooling degree days 3758 3318  
Growing Degree Days 22 (Base 50)    
Moisture  
Dew Point 61 °F    
Average Humidity 75    
Maximum Humidity 93    
Minimum Humidity 51    
Precipitation  
Precipitation 0.00 in 0.07 in 1.71 in (1955)
Month to date precipitation 0.00 0.40  
Year to date precipitation 44.04 50.88  
Sea Level Pressure  
Sea Level Pressure 29.98 in    
Wind  
Wind Speed 6 mph (ENE)    
Max Wind Speed 12 mph    
Max Gust Speed 15 mph    
Visibility 10 miles    
Events      
T = Trace of Precipitation, MM = Missing Value Source: NWS Daily Summary

Daily Weather History Graph

Daily Weather History Graph

Search for Another Location

Airport:

Trip Planner

Search our weather history database for the weather conditions in past years. The results will help you decide how hot, cold, wet, or windy it might be!

Date:

Astronomy

Dec. 06, 2012 Rise Set
Actual Time 7:07 AM EST 5:35 PM EST
Civil Twilight 6:41 AM EST 6:01 PM EST
Nautical Twilight 6:12 AM EST 6:30 PM EST
Astronomical Twilight 5:44 AM EST 6:58 PM EST
Moon No Moon Rise 12:29 PM EST (12/6)
Length of Visible Light 11h 19m
Length of Day
10h 28m
Waning Gibbous, 49% of the Moon is Illuminated
Dec 6
Waning Gibbous
Dec 13
New
Dec 20
First Quarter
Dec 28
Full
Jan 4
Last Quarter

Hourly Weather History & Observations

Time (EST) Temp. Heat Index Dew Point Humidity Pressure Visibility Wind Dir Wind Speed Gust Speed Precip Events Conditions
12:53 AM 64.9 °F - 61.0 °F 87% 30.03 in 10.0 mi East 6.9 mph - N/A   Clear
1:53 AM 64.9 °F - 62.1 °F 90% 30.02 in 10.0 mi ENE 4.6 mph - N/A   Overcast
2:53 AM 64.9 °F - 63.0 °F 93% 30.00 in 10.0 mi East 8.1 mph - N/A   Overcast
3:53 AM 64.0 °F - 62.1 °F 93% 29.99 in 10.0 mi East 6.9 mph - N/A   Mostly Cloudy
4:53 AM 64.0 °F - 62.1 °F 93% 29.98 in 10.0 mi ENE 4.6 mph - N/A   Overcast
5:53 AM 63.0 °F - 61.0 °F 93% 29.99 in 10.0 mi ENE 5.8 mph - N/A   Scattered Clouds
6:53 AM 63.0 °F - 61.0 °F 93% 30.00 in 10.0 mi ENE 5.8 mph - N/A   Mostly Cloudy
7:53 AM 64.9 °F - 62.1 °F 90% 30.02 in 10.0 mi East 8.1 mph - N/A   Overcast
8:53 AM 66.9 °F - 62.1 °F 84% 30.02 in 10.0 mi ENE 6.9 mph - N/A   Overcast
9:53 AM 70.0 °F - 62.1 °F 76% 30.03 in 10.0 mi ENE 9.2 mph - N/A   Partly Cloudy
10:53 AM 77.0 °F - 64.0 °F 64% 30.02 in 10.0 mi East 9.2 mph - N/A   Mostly Cloudy
11:53 AM 77.0 °F - 60.1 °F 56% 29.99 in 10.0 mi East 8.1 mph - N/A   Mostly Cloudy
12:53 PM 78.1 °F - 60.1 °F 54% 29.96 in 10.0 mi East 4.6 mph - N/A   Mostly Cloudy
1:53 PM 79.0 °F - 60.1 °F 52% 29.93 in 10.0 mi East 8.1 mph - N/A   Mostly Cloudy
2:53 PM 79.0 °F - 59.0 °F 50% 29.92 in 10.0 mi East 5.8 mph - N/A   Mostly Cloudy
3:53 PM 80.1 °F 80.9 °F 60.1 °F 50% 29.92 in 10.0 mi East 6.9 mph - N/A   Overcast
4:53 PM 78.1 °F - 60.1 °F 54% 29.92 in 10.0 mi East 4.6 mph - N/A   Scattered Clouds
5:53 PM 73.9 °F - 61.0 °F 64% 29.93 in 10.0 mi NE 3.5 mph - N/A   Clear
6:53 PM 72.0 °F - 60.1 °F 66% 29.94 in 10.0 mi NE 4.6 mph - N/A   Clear
8:53 PM 69.1 °F - 61.0 °F 75% 29.96 in 10.0 mi East 6.9 mph - N/A   Partly Cloudy
9:53 PM 68.0 °F - 62.1 °F 81% 29.96 in 10.0 mi East 8.1 mph - N/A   Clear
10:53 PM 66.9 °F - 63.0 °F 87% 29.96 in 10.0 mi East 5.8 mph - N/A   Clear
11:53 PM 66.0 °F - 62.1 °F 87% 29.95 in 10.0 mi East 6.9 mph - N/A   Clear